Torna al catalogo

COSMOS 1910

AttivoMilitarePO
NORAD 18789·PAYLOAD·🇷🇺 Russia

Lanciato Jan 15, 1988 da Plesetsk Cosmodrome

Loading…

Prossimi Passaggi (prossime 24 ore)

TLE

AggiornatoSource: Space-Track

Epoca: Sep 14, 2026, 06:58 UTC

1 18789U 88002B   26257.29056841  .00000023  00000-0  68822-4 0  9993
2 18789  82.6049 196.7629 0004697  15.4819 150.9634 12.63635706783126

Traccia COSMOS 1910 in tempo reale con AllMySat

Download on the App Store